Weather History for EGDR - October, 2012

Change the Weather History Date:

Sunday, October 7, 2012

  Actual Average Record
Temperature  
Mean Temperature 50 °F -  
Max Temperature 57 °F 55 °F 65 °F (2013)
Min Temperature 44 °F 47 °F 41 °F (2004)
Degree Days  
Heating Degree Days 14    
Moisture  
Dew Point 49 °F    
Average Humidity 88    
Maximum Humidity 100    
Minimum Humidity 71    
Precipitation  
Precipitation 0.01 in - - ()
Sea Level Pressure  
Sea Level Pressure 30.06 in    
Wind  
Wind Speed 14 mph ()    
Max Wind Speed 28 mph    
Max Gust Speed 38 mph    
Visibility 6.0 miles    
Events Rain    
Averages and records for this station are not official NWS values.
T = Trace of Precipitation, MM = Missing Value Source: Averaged Metar Reports

Daily Weather History Graph

Daily Weather History Graph

Search for Another Location

Airport or City:

Trip Planner

Search our weather history database for the weather conditions in past years. The results will help you decide how hot, cold, wet, or windy it might be!

Date:

Astronomy

Oct. 07, 2012 Rise Set
Actual Time 7:30 AM BST 6:45 PM BST
Civil Twilight 6:58 AM BST 7:18 PM BST
Nautical Twilight 6:20 AM BST 7:55 PM BST
Astronomical Twilight 5:43 AM BST 8:33 PM BST
Moon 11:19 PM BST (10/7) 2:23 PM BST (10/7)
Length of Visible Light 12h 19m
Length of Day
11h 14m
Waning Gibbous, 58% of the Moon is Illuminated
Oct 7
Waning Gibbous
Oct 8
Last Quarter
Oct 15
New
Oct 22
First Quarter
Oct 29
Full

Hourly Weather History & Observations

Time (BST) Temp. Windchill Dew Point Humidity Pressure Visibility Wind Dir Wind Speed Gust Speed Precip Events Conditions
12:50 AM 47 °F - 40 °F 71% 30.06 in 25 mi NE 15.0 mph - -  
12:50 AM 46.4 °F 40.1 °F 41.0 °F 81% 30.04 in 6.2 mi NE 15.0 mph - N/A   Unknown
1:50 AM 46.4 °F 40.4 °F 41.0 °F 81% 30.06 in 6.2 mi NE 13.8 mph - N/A   Unknown
2:50 AM 46.4 °F 42.4 °F 41.0 °F 81% 30.06 in 6.2 mi ENE 8.1 mph - N/A   Unknown
3:50 AM 45 °F - 41 °F 82% 30.09 in 12 mi ENE 9.2 mph - -   Partly Cloudy
3:50 AM 44.6 °F 39.7 °F 41.0 °F 87% 30.06 in 6.2 mi ENE 9.2 mph - N/A   Unknown
4:50 AM 44.6 °F 39.2 °F 41.0 °F 87% 30.06 in 6.2 mi ENE 10.4 mph - N/A   Scattered Clouds
5:50 AM 44.6 °F 38.4 °F 42.8 °F 93% 30.06 in 6.2 mi ENE 12.7 mph - N/A   Scattered Clouds
6:50 AM 46 °F - 43 °F 87% 30.10 in 12 mi East 12.7 mph - -   Partly Cloudy
6:50 AM 46.4 °F 40.7 °F 42.8 °F 87% 30.06 in 6.2 mi East 12.7 mph - N/A   Scattered Clouds
7:50 AM 46.4 °F 41.1 °F 44.6 °F 93% 30.09 in - East 11.5 mph - N/A   Clear
8:50 AM 50.0 °F - 48.2 °F 94% 30.12 in - East 9.2 mph - N/A   Clear
9:50 AM 54 °F - 51 °F 88% 30.14 in 12 mi East 11.5 mph - -   Partly Cloudy
9:50 AM 53.6 °F - 51.8 °F 94% 30.12 in 6.2 mi East 11.5 mph - N/A   Mostly Cloudy
10:50 AM 55.4 °F - 51.8 °F 88% 30.12 in 6.2 mi ESE 13.8 mph - N/A   Mostly Cloudy
11:50 AM 55.4 °F - 50.0 °F 82% 30.12 in 6.2 mi ESE 16.1 mph 27.6 mph N/A   Mostly Cloudy
12:50 PM 55 °F - 50 °F 76% 30.13 in 12 mi ESE 16.1 mph - -   Mostly Cloudy
12:50 PM 55.4 °F - 50.0 °F 82% 30.12 in 6.2 mi ESE 16.1 mph 27.6 mph N/A   Mostly Cloudy
1:50 PM 57.2 °F - 50.0 °F 77% 30.12 in 6.2 mi ESE 18.4 mph - N/A Rain Light Rain
2:50 PM 57.2 °F - 50.0 °F 77% 30.06 in 6.2 mi ESE 23.0 mph 38.0 mph N/A   Haze
3:50 PM 55 °F - 52 °F 85% 30.09 in 7 mi ESE 20.7 mph - - Rain Light Rain
3:50 PM 55.4 °F - 51.8 °F 88% 30.06 in 6.2 mi ESE 20.7 mph 34.5 mph N/A Rain Light Rain
4:50 PM 53.6 °F - 51.8 °F 94% 30.06 in 2.5 mi ESE 21.9 mph - N/A Rain Light Rain
5:50 PM 53.6 °F - 51.8 °F 94% 30.04 in 6.2 mi ESE 20.7 mph - N/A   Mostly Cloudy
6:50 PM 54 °F - 52 °F 90% 30.06 in 6 mi ESE 24.2 mph - - Rain Light Rain
6:50 PM 53.6 °F - 51.8 °F 94% 30.04 in 6.2 mi ESE 24.2 mph - N/A   Mostly Cloudy
7:50 PM 53.6 °F - 53.6 °F 100% 30.01 in 1.9 mi ESE 24.2 mph - N/A Rain Light Rain
8:50 PM 55.4 °F - 53.6 °F 94% 30.01 in 1.9 mi ESE 27.6 mph - N/A Rain Light Rain
9:50 PM 56 °F - 55 °F 95% 30.00 in 2 mi ESE 25.3 mph - - Rain Light Rain
9:50 PM 55.4 °F - 55.4 °F 100% 29.98 in 1.6 mi ESE 25.3 mph - N/A Rain Light Rain
10:50 PM 57.2 °F - 55.4 °F 94% 29.98 in 1.2 mi ESE 21.9 mph - N/A Rain Rain
11:50 PM 57.2 °F - 57.2 °F 100% 29.95 in 2.5 mi East 18.4 mph - N/A Rain Rain